Starlink 34302

operational
NORAD ID: 65216 Int'l Des: 2025-176 Owner: SPXS Country: US Constellation: starlink
LEOCIRCULAR

About Starlink 34302

Description loading...

Live Position

Loading 3D Globe...

Upcoming Passes

Altitude History

Altitude vs Time

uPlot chart will show altitude changes over time

Two-Line Element Set

1 65216U 25176U 26063.31301707 .00048756 00000-0 16439-2 0 9995
2 65216 53.1615 177.9577 0001234 78.9336 281.1804 15.30271907 32297
Epoch: Mar 4, 2026 • Age: 19 hours

Current Status

Altitude 481.5 km
Velocity 7.62 km/s
Sub-Earth Point -21.63°S, 80.52°W
Launch Date Aug 14, 2025
Age 0.5 years
Type internet

Technical Details

Classification Payload
Mass 575.00 kg
Dry Mass 530.00 kg
Total Mass 575.00 kg
Length 0.30 m
Diameter 4.10 m
Span 29.00 m
Shape Box + pan
Manufacturer SPXS
Bus Type Starlink V2MO
Phase Status In Orbit
Owner/State SPXS/US

Large Constellations

Loading constellations...